Location: Avon
(37.7514°N, 90.2235°W)
Time: 23:19:14
(UTC+00:00)

Explorer 7 - Pass Details

Date: 18 November 2024
Orbit: 456 x 598 km, 50.3° (Epoch: 03 December)

Event Time Altitude Azimuth Distance (km) Brightness Sun altitude
Exits shadow 10:11:51 11° 29° (NNE) 1,777 9.7 -30.1°
Drops below altitude 10° 10:12:03 10° 31° (NNE) 1,817 9.8 -30.1°
Sets 10:15:20 0° 58° (ENE) 2,748 11.2 -29.4°
